Probability
0 0 0 0 0 0 0 0 0 0 0 0 0 0 0 1 3 2 2 3 3 2 3 6 10 12 13 14 14 13 12 12 10 6 6 6 5 2 0 1 0 1 1
0 0 0 0 0 0 0 0 0 0 0 0 0 0 0 1 3 3 3 3 3 3 5 7 9 12 13 15 15 13 12 12 9 6 5 5 4 1 1 1 1 0 1
0 0 0 0 0 0 0 0 0 0 0 0 0 0 0 1 3 4 4 4 4 6 8 8 8 10 13 14 13 11 10 10 9 7 5 3 1 1 1 2 1 0 0
1 0 0 0 0 0 0 0 0 0 0 0 0 0 0 1 3 6 6 6 6 8 10 9 7 9 11 12 11 9 9 9 9 6 3 1 0 0 1 1 1 2 1
2 1 1 1 1 0 0 0 0 0 0 0 0 1 2 2 4 7 7 7 7 8 10 9 7 7 9 10 10 10 10 9 8 5 2 1 0 0 0 1 2 3 3
3 2 2 3 3 1 0 0 0 0 0 0 1 2 3 3 5 7 7 6 6 6 6 6 5 5 6 7 9 11 10 9 7 4 2 1 0 0 0 1 2 3 3
3 3 4 6 6 3 1 0 0 0 0 0 1 2 3 3 4 5 4 4 4 3 3 3 4 3 4 5 8 10 9 7 4 3 2 1 0 0 0 1 2 3 3
4 4 5 7 7 5 2 1 0 0 0 0 0 1 1 2 2 2 2 1 1 1 1 2 3 3 2 3 7 9 7 4 2 1 1 0 0 0 0 1 2 3 2
4 4 5 5 5 4 2 1 1 0 0 0 0 0 1 1 1 2 2 1 1 1 1 2 3 3 2 4 7 8 5 2 1 0 0 0 0 0 0 1 2 2 1
3 3 3 3 2 1 1 2 2 1 0 0 0 0 0 0 1 2 3 4 4 3 3 3 4 5 5 6 7 6 4 2 0 0 0 0 0 0 0 1 2 2 1
1 1 1 1 0 0 1 2 2 1 0 0 0 0 0 0 1 2 4 5 6 5 3 3 4 5 5 5 5 4 3 1 0 0 0 0 0 0 0 1 3 2 1
0 0 0 0 0 0 0 1 1 0 0 0 0 0 0 0 1 2 3 4 5 4 2 1 1 2 2 2 1 1 1 0 0 0 0 0 0 0 1 2 3 2 1
0 0 0 0 0 0 0 0 0 0 0 0 0 0 0 0 0 1 2 3 3 2 1 0 0 0 0 0 0 0 0 0 0 0 0 0 0 0 1 2 2 1 0
0 0 0 0 0 0 0 0 0 0 0 0 0 0 0 0 0 0 1 1 1 1 0 0 0 0 0 0 0 0 0 0 0 0 0 0 0 0 0 1 1 0 0
0 0 0 0 0 0 0 0 0 0 0 0 1 1 1 0 0 0 0 0 0 0 0 0 0 0 0 0 0 0 0 0 0 0 0 0 0 0 0 0 0 0 0
0 0 0 0 0 0 1 1 1 0 0 1 2 2 1 0 0 0 0 0 0 0 0 0 0 0 0 0 0 0 0 1 2 2 1 1 0 0 0 0 0 0 0
0 0 0 0 0 0 1 2 1 0 1 2 2 1 0 0 0 0 0 0 0 0 0 0 0 0 0 0 0 0 1 2 3 2 2 1 0 0 0 0 1 1 1
0 0 0 0 0 0 1 1 1 0 1 1 1 0 0 0 0 0 0 0 0 0 0 0 0 0 0 0 0 0 1 2 2 1 1 0 0 0 0 0 1 2 2
0 0 0 0 0 0 0 0 0 0 0 0 0 0 0 0 0 0 0 0 0 0 0 0 0 0 0 0 0 0 0 1 1 0 0 0 0 0 0 0 1 1 2
0 0 0 0 0 0 0 0 0 0 0 0 0 0 0 0 0 0 0 0 0 0 0 0 0 0 0 0 0 0 0 0 0 0 0 0 0 0 0 0 0 0 1
0 0 0 0 0 0 0 0 0 0 0 0 0 0 0 0 0 0 0 0 0 0 0 0 0 0 0 0 0 0 0 0 0 0 0 0 0 0 0 0 0 0 0
0 0 0 0 0 0 0 0 0 0 0 0 0 0 0 0 0 0 0 0 0 0 0 0 0 0 0 0 0 0 0 0 0 0 0 0 0 0 0 0 0 0 0
0 0 0 0 0 0 0 0 0 0 0 0 0 0 0 0 0 0 0 0 0 0 0 0 0 0 0 0 0 0 0 0 0 0 0 0 0 0 0 0 0 0 0
0 0 0 0 0 0 1 2 1 0 0 0 0 0 0 0 0 0 0 0 0 0 0 0 0 0 0 0 0 0 0 0 0 0 0 0 0 0 0 0 0 0 0
0 0 0 0 0 1 2 3 2 1 0 0 0 0 0 0 0 0 0 0 0 0 0 0 0 0 0 0 0 0 0 0 0 0 0 0 0 0 0 0 0 0 0
0 0 0 0 0 1 2 3 2 1 0 0 0 0 0 0 0 0 0 0 0 0 0 0 0 0 0 0 0 0 0 0 0 0 0 0 0 0 0 0 0 0 0
Wind_Speed
1 2 1 2 4 6 7 8 9 9 10 10 10 10 9 10 12 12 13 13 14 14 15 15 16 16 16 17 18 17 17 17 17 18 18 17 17 16 16 16 15 12 16
1 1 1 3 4 6 7 8 9 9 10 10 10 10 10 10 11 12 13 13 14 15 15 15 15 17 17 17 17 17 17 17 17 17 17 16 16 15 15 15 14 10 15
2 0 2 3 5 6 7 8 8 9 10 10 9 9 10 10 11 12 13 13 15 14 15 15 16 17 17 16 16 16 17 16 16 16 15 9 11 14 14 14 14 14 14
3 1 2 4 5 6 7 8 8 8 9 9 9 9 10 10 11 12 12 13 14 14 15 16 16 16 16 16 16 16 16 16 15 15 8 7 8 13 14 13 13 13 13
2 1 2 5 5 6 7 7 8 8 8 9 9 9 11 10 11 12 13 13 14 14 15 15 15 15 15 15 15 15 15 14 15 11 7 6 6 12 13 13 13 12 13
2 1 2 5 5 5 6 6 7 8 8 8 9 10 10 10 11 12 13 13 13 13 13 14 14 14 14 14 14 14 14 14 12 8 7 6 6 11 12 12 12 12 12
2 2 1 5 5 5 6 6 7 8 8 8 8 9 9 9 10 12 12 12 12 12 13 14 14 13 13 13 13 13 13 13 9 8 6 6 6 10 11 11 11 11 11
2 2 2 4 5 6 5 6 7 8 8 8 8 8 9 9 10 11 12 12 12 12 13 13 13 13 12 12 12 11 11 11 9 8 6 5 8 10 11 10 10 11 10
3 2 2 2 2 5 6 6 7 7 7 7 7 8 8 9 9 10 11 12 11 11 13 13 13 12 11 10 10 10 10 11 7 5 6 4 8 10 11 10 10 10 10
3 2 2 2 3 3 3 5 7 7 6 6 6 7 8 8 9 10 10 11 11 11 11 12 11 11 10 8 8 9 10 9 6 6 4 5 9 9 10 10 10 10 10
1 2 2 2 2 2 2 3 5 5 5 5 5 7 6 4 5 6 8 10 10 10 10 9 9 9 8 7 7 7 7 4 6 4 3 7 8 9 9 9 9 9 9
1 0 1 1 2 2 2 3 2 3 3 4 3 4 3 4 4 5 7 8 8 8 8 8 8 7 5 3 4 5 3 4 4 3 4 8 8 8 8 9 9 8 8
2 1 1 1 1 2 1 2 2 2 2 3 3 4 3 4 3 3 3 3 4 5 4 5 5 3 3 3 2 3 3 3 2 3 4 8 7 8 8 8 8 8 8
3 2 1 1 1 2 2 1 1 1 1 1 2 3 3 2 3 2 2 3 3 2 3 3 2 3 3 3 3 3 3 2 2 2 4 8 7 7 7 7 7 8 8
3 3 3 2 2 2 2 1 2 1 1 1 1 2 3 3 2 2 2 2 2 2 2 2 2 3 3 3 3 3 3 3 3 2 2 6 7 7 7 7 7 7 7
4 4 3 3 3 3 2 2 1 1 1 1 1 2 3 3 3 2 2 2 2 2 2 2 2 2 2 2 3 2 3 3 3 2 2 4 6 6 6 7 7 7 6
5 4 4 4 3 3 3 2 2 1 2 1 1 2 3 3 3 2 2 2 1 2 2 2 3 2 2 3 3 2 2 2 2 2 2 2 2 5 6 6 6 6 6
4 4 4 4 4 3 3 2 1 2 2 1 1 2 2 3 3 3 2 1 2 2 2 2 2 3 3 3 2 2 2 1 1 2 1 1 1 2 3 5 6 6 6
6 5 4 3 4 4 3 2 2 2 2 1 1 1 2 3 4 3 2 2 2 2 2 2 2 2 3 3 2 2 1 1 0 1 1 2 1 1 1 2 4 5 6
5 5 5 4 4 4 3 2 2 2 1 1 1 1 2 2 4 3 2 2 3 2 2 2 3 3 2 2 2 2 1 1 0 0 2 2 2 2 2 2 2 2 4
5 4 5 4 4 4 2 2 2 1 1 1 1 2 2 3 4 3 3 2 3 3 3 4 3 4 2 2 2 2 2 2 1 0 1 1 2 2 2 2 1 1 1
6 5 5 5 5 4 3 2 2 2 1 1 1 1 2 3 3 3 3 3 3 3 3 3 3 3 2 2 2 2 1 2 2 1 0 1 1 1 1 2 2 2 1
6 7 6 5 4 4 4 3 2 2 2 1 1 1 2 3 3 3 4 3 3 3 3 3 3 4 3 1 1 2 2 1 1 1 1 1 0 1 1 1 2 2 2
8 6 5 5 5 4 5 4 4 3 2 2 1 1 1 2 2 3 3 3 3 3 3 3 3 3 4 2 1 1 1 2 2 0 1 1 0 1 1 1 2 2 2
7 7 6 5 4 4 5 5 5 3 2 1 1 1 1 1 2 2 3 3 3 3 3 3 3 3 3 3 2 2 1 1 1 2 1 1 0 0 1 1 1 1 2
6 6 6 5 4 4 5 5 5 5 4 3 2 2 1 1 1 2 3 3 3 3 3 3 3 4 3 3 3 2 3 2 3 3 2 1 1 1 1 1 1 2 2
Wind_Direction
263 272 236 88 81 84 90 90 93 95 97 99 100 102 104 109 117 124 126 127 128 127 128 129 132 132 132 132 130 129 129 128 128 128 127 126 126 124 122 120 117 116 117
183 239 147 102 98 94 95 94 96 97 98 99 100 103 104 108 117 121 124 125 126 126 127 128 130 130 129 128 129 129 129 128 129 130 128 127 127 124 123 121 120 122 121
112 80 127 108 102 102 100 98 98 98 98 98 97 102 106 110 115 120 122 122 124 123 125 125 127 127 127 127 128 128 129 130 129 126 122 119 124 125 124 124 124 124 123
117 102 121 111 104 105 105 101 99 101 101 98 95 98 110 113 118 119 119 120 125 123 122 122 125 126 125 127 128 129 130 131 128 124 115 118 124 127 126 125 126 125 125
107 105 130 109 103 107 106 106 103 103 100 98 95 101 111 115 118 118 119 120 123 124 123 124 125 125 124 126 128 129 130 131 128 118 113 113 117 130 128 129 130 129 128
111 97 122 111 105 108 113 109 108 106 103 98 96 103 108 114 116 118 119 120 122 122 122 123 126 125 125 128 129 130 131 129 122 114 115 116 122 134 134 134 133 133 132
94 71 101 109 107 112 114 115 114 109 108 105 101 101 104 108 113 117 119 120 119 118 121 121 122 122 124 128 129 128 130 131 122 119 119 123 132 137 138 139 138 138 136
91 66 73 102 104 113 114 116 117 115 115 113 106 101 98 102 111 115 118 119 118 118 120 122 121 123 123 129 131 131 130 129 124 125 127 133 143 143 144 145 144 142 141
78 63 43 47 80 109 105 109 117 115 112 109 104 99 97 96 110 117 118 118 119 118 120 121 122 124 121 125 132 130 129 131 124 129 137 140 151 151 151 151 149 149 148
73 61 48 37 43 60 87 106 112 113 113 111 107 99 95 99 106 114 112 116 115 115 117 121 124 124 121 121 126 131 130 126 125 131 135 151 157 158 156 154 155 154 153
86 40 53 54 50 55 71 97 97 96 94 98 102 102 91 76 89 103 110 115 116 115 117 120 118 118 115 114 119 123 118 117 127 134 139 157 162 165 162 159 157 158 158
178 146 55 81 79 73 79 69 59 63 62 62 67 79 73 75 83 94 108 117 119 115 114 111 109 107 100 93 100 101 102 121 127 139 152 161 165 168 165 161 162 164 162
181 178 137 132 120 116 79 74 61 59 62 63 70 79 79 73 76 74 77 95 100 104 93 93 92 83 87 90 91 97 111 117 127 145 155 166 171 175 173 170 172 172 172
168 191 175 157 139 124 106 87 82 74 73 72 79 97 97 88 78 77 79 78 79 81 83 82 86 82 87 90 102 112 122 130 134 142 161 177 183 184 180 177 180 181 183
176 187 179 170 160 142 127 127 112 107 103 92 90 106 113 110 107 97 91 86 83 88 92 92 88 82 82 87 97 110 123 133 140 151 164 182 185 183 182 182 185 185 186
189 190 179 174 172 150 143 145 146 142 117 101 105 120 123 121 123 118 106 96 93 101 103 103 98 91 86 91 85 90 109 122 127 143 156 175 178 180 183 185 188 187 189
191 185 178 175 165 158 155 159 147 143 127 128 127 127 129 130 135 135 130 124 119 113 108 102 95 93 98 97 90 90 103 120 128 140 149 165 177 185 189 196 195 196 198
174 172 177 171 157 159 156 155 144 138 134 138 123 124 136 140 139 135 141 145 128 115 113 114 107 98 90 94 88 73 80 96 127 145 152 162 169 190 204 207 205 205 209
172 168 165 157 154 157 154 145 136 127 137 145 133 137 144 141 142 137 143 144 131 120 120 126 107 111 107 98 85 70 70 88 110 161 171 187 190 194 210 216 214 216 220
165 163 159 154 150 144 133 116 107 108 116 123 146 161 155 150 147 141 140 137 130 121 119 120 116 107 113 110 89 63 40 28 62 172 208 198 200 207 214 224 229 229 226
154 158 162 157 156 142 131 139 142 155 155 148 172 165 158 156 150 146 146 139 139 141 146 140 126 121 117 114 97 61 26 32 52 255 210 199 208 208 195 205 214 223 239
167 169 167 168 166 164 161 152 148 140 147 154 154 143 156 160 160 159 154 151 143 137 138 144 140 133 142 137 126 110 39 6 16 35 72 191 202 186 199 202 188 187 200
177 179 181 177 171 170 156 125 102 84 73 85 118 167 173 166 164 157 162 155 152 153 163 169 161 156 160 150 144 146 149 202 312 358 24 51 133 173 195 197 193 189 191
188 180 175 173 170 167 154 150 152 158 171 197 187 186 178 164 164 164 162 162 163 162 171 184 172 160 152 164 155 145 152 154 158 255 338 359 20 195 204 196 188 188 188
182 175 171 165 171 170 165 165 162 164 176 164 146 159 176 169 178 177 174 168 172 174 181 186 168 167 166 169 169 157 140 123 152 173 236 283 327 275 226 214 195 194 194
173 170 168 168 181 175 170 170 173 174 171 161 169 179 192 192 196 199 188 185 187 185 189 193 184 179 183 181 181 174 170 172 182 179 202 235 256 272 240 218 207 205 202